FW5359 Weather Reports


time (UTC)temp
C
wind
direction
speed
KPH
gust
KPH
rain 1hr
cm
rain 24hr
cm
rain mn
cm
humidity
%
barometer
mb
20260905204639 33 167 3.2 16.1 0.00 0.00 0.00 50 1013.0
20260905204133 34 71 4.8 11.3 0.00 0.00 0.00 52 1013.0
20260905203627 34 153 3.2 12.9 0.00 0.00 0.00 51 1013.1
20260905203122 34 80 3.2 12.9 0.00 0.00 0.00 51 1013.2
20260905202616 34 304 3.2 12.9 0.00 0.00 0.00 51 1013.3
20260905202340 34 114 4.8 14.5 0.00 0.00 0.00 51 1013.4
20260905201604 34 171 6.4 14.5 0.00 0.00 0.00 51 1013.5
20260905201058 34 116 4.8 16.1 0.00 0.00 0.00 49 1013.6
20260905200823 35 196 3.2 16.1 0.00 0.00 0.00 50 1013.5
20260905200046 35 104 3.2 12.9 0.00 0.00 0.00 51 1013.6
20260905195545 35 127 4.8 14.5 0.00 0.00 0.00 50 1013.7
20260905195045 35 250 3.2 14.5 0.00 0.00 0.00 48 1013.9
20260905194815 34 217 3.2 12.9 0.00 0.00 0.00 48 1013.9
20260905194043 33 279 3.2 11.3 0.00 0.00 0.00 54 1014.0
20260905193543 33 298 4.8 11.3 0.00 0.00 0.00 54 1014.1
20260905193043 33 128 3.2 14.5 0.00 0.00 0.00 55 1014.2
20260905192543 33 171 3.2 14.5 0.00 0.00 0.00 54 1014.4
20260905192041 33 177 4.8 14.5 0.00 0.00 0.00 54 1014.5
20260905191538 33 178 3.2 14.5 0.00 0.00 0.00 53 1014.7
20260905191038 33 242 1.6 12.9 0.00 0.00 0.00 56 1014.7
20260905190539 33 153 3.2 12.9 0.00 0.00 0.00 56 1014.9
20260905190039 33 165 3.2 11.3 0.00 0.00 0.00 56 1014.9
20260905185539 32 159 4.8 12.9 0.00 0.00 0.00 57 1015.0
20260905185309 32 164 4.8 12.9 0.00 0.00 0.00 56 1015.2
20260905184535 32 134 3.2 12.9 0.00 0.00 0.00 59 1015.3
20260905183534 33 124 3.2 14.5 0.00 0.00 0.00 58 1015.4
20260905183032 33 166 4.8 11.3 0.00 0.00 0.00 60 1015.4
20260905182529 32 109 3.2 11.3 0.00 0.00 0.00 60 1015.3
20260905182029 32 171 3.2 11.3 0.00 0.00 0.00 59 1015.5
20260905181529 32 167 3.2 11.3 0.00 0.00 0.00 59 1015.5
20260905181028 32 142 3.2 9.7 0.00 0.00 0.00 60 1015.6
20260905180529 32 182 3.2 12.9 0.00 0.00 0.00 60 1015.7
20260905180029 32 86 4.8 14.5 0.00 0.00 0.00 62 1015.7
20260905175529 32 67 3.2 14.5 0.00 0.00 0.00 63 1015.7
20260905175306 32 127 3.2 11.3 0.00 0.00 0.00 63 1015.9
20260905174529 31 206 3.2 12.9 0.00 0.00 0.00 64 1015.9
20260905174028 31 227 3.2 12.9 0.00 0.00 0.00 65 1015.9
20260905173529 31 96 3.2 12.9 0.00 0.00 0.00 65 1015.9
20260905173029 31 132 3.2 11.3 0.00 0.00 0.00 66 1016.0
20260905172529 31 128 3.2 9.7 0.00 0.00 0.00 66 1016.1
20260905172029 31 114 1.6 9.7 0.00 0.00 0.00 67 1016.2
20260905171529 31 169 3.2 9.7 0.00 0.00 0.00 69 1016.3
20260905171028 30 176 3.2 11.3 0.00 0.00 0.00 70 1016.3
20260905170757 30 126 1.6 11.3 0.00 0.00 0.00 72 1016.3
20260905170027 30 125 3.2 9.7 0.00 0.00 0.00 72 1016.4
20260905165520 30 126 3.2 9.7 0.00 0.00 0.00 73 1016.4
20260905165013 30 126 3.2 9.7 0.00 0.00 0.00 73 1016.5
20260905164508 30 150 3.2 11.3 0.00 0.00 0.00 73 1016.4
20260905164003 30 107 3.2 11.3 0.00 0.00 0.00 73 1016.4
20260905163456 30 123 3.2 11.3 0.00 0.00 0.00 74 1016.5
20260905162950 30 122 3.2 9.7 0.00 0.00 0.00 75 1016.5
20260905162715 29 136 1.6 9.7 0.00 0.00 0.00 75 1016.5
20260905161938 29 161 1.6 9.7 0.00 0.00 0.00 77 1016.6
20260905161432 29 161 3.2 11.3 0.00 0.00 0.00 77 1016.6
20260905161157 29 158 3.2 11.3 0.00 0.00 0.00 77 1016.7
20260905160420 29 155 3.2 11.3 0.00 0.00 0.00 77 1016.6
20260905155914 28 250 3.2 12.9 0.00 0.00 0.00 78 1016.6
20260905155408 28 146 3.2 12.9 0.00 0.00 0.00 78 1016.7
20260905154902 28 233 3.2 11.3 0.00 0.00 0.00 80 1016.5
20260905154356 28 232 3.2 11.3 0.00 0.00 0.00 79 1016.6
20260905153849 28 201 3.2 11.3 0.00 0.00 0.00 80 1016.5
20260905153344 28 164 1.6 11.3 0.00 0.00 0.00 80 1016.4
20260905153109 27 207 1.6 9.7 0.00 0.00 0.00 80 1016.4
20260905152332 27 221 3.2 12.9 0.00 0.00 0.00 80 1016.3
20260905151826 27 149 3.2 12.9 0.00 0.00 0.00 80 1016.4
20260905151320 27 157 3.2 9.7 0.00 0.00 0.00 81 1016.3
20260905150813 27 184 3.2 9.7 0.00 0.00 0.00 81 1016.3
20260905150307 27 254 1.6 9.7 0.00 0.00 0.00 81 1016.4
20260905145256 27 148 1.6 6.4 0.00 0.00 0.00 82 1016.4
20260905144750 27 209 1.6 6.4 0.00 0.00 0.00 83 1016.3
20260905144244 27 211 1.6 8.0 0.00 0.00 0.00 83 1016.3
20260905143738 27 215 1.6 8.0 0.00 0.00 0.00 84 1016.3
20260905143232 27 179 0.0 4.8 0.00 0.00 0.00 85 1016.4
20260905142726 26 178 1.6 4.8 0.00 0.00 0.00 85 1016.3
20260905142220 26 178 1.6 4.8 0.00 0.00 0.00 86 1016.3
20260905141714 26 178 1.6 4.8 0.00 0.00 0.00 86 1016.3
20260905141208 26 180 1.6 4.8 0.00 0.00 0.00 86 1016.3
20260905140702 26 180 1.6 4.8 0.00 0.00 0.00 86 1016.2
20260905140428 26 180 1.6 4.8 0.00 0.00 0.00 87 1016.1
20260905135650 26 180 1.6 4.8 0.00 0.00 0.00 87 1016.0
20260905135144 26 180 1.6 4.8 0.00 0.00 0.00 87 1016.1
20260905134637 26 179 1.6 8.0 0.00 0.00 0.00 87 1016.0
20260905134131 26 177 1.6 8.0 0.00 0.00 0.00 87 1016.0
20260905133626 26 184 1.6 6.4 0.00 0.00 0.00 87 1016.0
20260905133120 26 184 1.6 6.4 0.00 0.00 0.00 87 1015.9
20260905132614 26 159 1.6 6.4 0.00 0.00 0.00 87 1015.9
20260905132108 26 160 1.6 6.4 0.00 0.00 0.00 88 1015.9
20260905131602 25 160 0.0 6.4 0.00 0.00 0.00 88 1015.8
20260905131326 25 159 0.0 6.4 0.00 0.00 0.00 89 1015.8
20260905130550 25 160 0.0 6.4 0.00 0.00 0.00 89 1015.6
20260905130043 25 159 0.0 6.4 0.00 0.00 0.00 89 1015.6
20260905125544 25 159 0.0 3.2 0.00 0.00 0.00 89 1015.6
20260905125042 25 159 0.0 3.2 0.00 0.00 0.00 89 1015.6
20260905124540 25 159 0.0 3.2 0.00 0.00 0.00 89 1015.5
20260905124038 25 159 0.0 3.2 0.00 0.00 0.00 89 1015.5
20260905123538 25 159 0.0 1.6 0.00 0.00 0.00 89 1015.4
20260905123310 25 159 0.0 1.6 0.00 0.00 0.00 89 1015.3
20260905122536 25 159 0.0 3.2 0.00 0.00 0.00 89 1015.3
20260905122034 25 159 0.0 3.2 0.00 0.00 0.00 89 1015.3
20260905121806 25 159 0.0 3.2 0.00 0.00 0.00 89 1015.3
20260905121034 25 159 0.0 3.2 0.00 0.00 0.00 89 1015.2
20260905120804 25 159 0.0 3.2 0.00 0.00 0.00 89 1015.2
20260905120030 25 159 0.0 1.6 0.00 0.00 0.00 89 1015.3
20260905115528 25 159 0.0 1.6 0.00 0.00 0.00 89 1015.3
20260905115025 25 159 0.0 0.0 0.00 0.00 0.00 89 1015.2
20260905114524 25 159 0.0 0.0 0.00 0.00 0.00 89 1015.2
20260905114022 25 159 0.0 0.0 0.00 0.00 0.00 89 1015.2
20260905113520 25 159 0.0 0.0 0.00 0.00 0.00 89 1015.0
20260905113251 25 159 0.0 0.0 0.00 0.00 0.00 88 1015.0
20260905112520 25 159 0.0 0.0 0.00 0.00 0.00 88 1014.9
20260905112020 25 159 0.0 6.4 0.00 0.00 0.00 88 1015.2
20260905111519 25 159 1.6 6.4 0.00 0.00 0.00 88 1015.0
20260905111020 25 159 0.0 6.4 0.00 0.00 0.00 88 1014.9
20260905110520 25 161 0.0 1.6 0.00 0.00 0.00 88 1014.9
20260905110020 25 161 0.0 6.4 0.00 0.00 0.00 88 1014.9
20260905105520 25 161 0.0 6.4 0.00 0.00 0.00 88 1014.9
20260905105020 25 161 0.0 3.2 0.00 0.00 0.00 88 1014.8
20260905104520 25 160 0.0 3.2 0.00 0.00 0.00 88 1014.9
20260905104020 25 161 0.0 3.2 0.00 0.00 0.00 88 1014.9
20260905103520 25 160 0.0 3.2 0.00 0.00 0.00 88 1014.9
20260905103020 25 160 0.0 3.2 0.00 0.00 0.00 88 1014.9
20260905102753 25 160 0.0 6.4 0.00 0.00 0.00 88 1014.9
20260905101518 25 160 0.0 3.2 0.00 0.00 0.00 88 1014.8
20260905101021 25 160 1.6 6.4 0.00 0.00 0.00 88 1014.8
20260905100516 25 160 1.6 6.4 0.00 0.00 0.00 88 1014.8
20260905100016 25 160 1.6 8.0 0.00 0.00 0.00 88 1014.8
20260905095516 25 160 1.6 8.0 0.00 0.00 0.00 88 1014.8
20260905095013 25 160 1.6 6.4 0.00 0.00 0.00 88 1014.8
20260905094007 25 160 0.0 3.2 0.00 0.00 0.00 88 1014.8
20260905093501 25 160 0.0 3.2 0.00 0.00 0.00 88 1014.8
20260905092955 25 160 0.0 1.6 0.00 0.00 0.00 88 1014.7
20260905092449 25 160 0.0 0.0 0.00 0.00 0.00 88 1014.9
20260905091943 25 160 0.0 0.0 0.00 0.00 0.00 88 1014.7
20260905091436 25 160 0.0 3.2 0.00 0.00 0.00 88 1014.6
20260905090931 25 160 0.0 6.4 0.00 0.00 0.00 88 1014.7
20260905090425 25 160 1.6 6.4 0.00 0.00 0.00 88 1014.6
20260905085919 25 160 1.6 6.4 0.00 0.00 0.00 88 1014.7
20260905085413 25 160 1.6 6.4 0.00 0.00 0.00 88 1014.7
20260905084907 25 160 0.0 6.4 0.00 0.00 0.00 87 1014.6
20260905084401 25 160 0.0 4.8 0.00 0.00 0.00 87 1014.6
20260905083855 25 160 0.0 3.2 0.00 0.00 0.00 87 1014.8
20260905083621 25 160 0.0 4.8 0.00 0.00 0.00 87 1014.8
20260905082843 25 160 0.0 4.8 0.00 0.00 0.00 87 1014.8
20260905082337 25 160 0.0 6.4 0.00 0.00 0.00 86 1014.9
20260905081830 25 160 0.0 6.4 0.00 0.00 0.00 86 1014.9
20260905081324 26 160 0.0 3.2 0.00 0.00 0.00 86 1014.9
20260905080818 26 160 0.0 3.2 0.00 0.00 0.00 85 1014.8
20260905080313 26 160 0.0 8.0 0.00 0.00 0.00 85 1014.9
20260905075807 26 160 1.6 8.0 0.00 0.00 0.00 85 1015.0
20260905075301 26 161 1.6 8.0 0.00 0.00 0.00 85 1015.0
20260905074755 26 161 1.6 8.0 0.00 0.00 0.00 85 1014.9
20260905074249 26 159 1.6 8.0 0.00 0.00 0.00 85 1015.0
20260905074015 26 159 0.0 6.4 0.00 0.00 0.00 85 1015.2
20260905073237 26 159 1.6 6.4 0.00 0.00 0.00 85 1015.2
20260905072730 26 162 1.6 8.0 0.00 0.00 0.00 84 1015.3
20260905072225 26 162 1.6 11.3 0.00 0.00 0.00 84 1015.4
20260905071718 26 159 1.6 11.3 0.00 0.00 0.00 84 1015.5
20260905071213 26 155 3.2 9.7 0.00 0.00 0.00 84 1015.4
20260905070707 26 155 1.6 9.7 0.00 0.00 0.00 84 1015.5
20260905070201 26 152 1.6 9.7 0.00 0.00 0.00 84 1015.4
20260905065925 26 150 3.2 8.0 0.00 0.00 0.00 83 1015.4
20260905065149 26 161 1.6 8.0 0.00 0.00 0.00 83 1015.5
20260905064643 26 143 1.6 4.8 0.00 0.00 0.00 83 1015.5
20260905064408 26 143 1.6 8.0 0.00 0.00 0.00 83 1015.5
20260905063631 26 142 3.2 8.0 0.00 0.00 0.00 82 1015.4
20260905063126 26 171 1.6 8.0 0.00 0.00 0.00 82 1015.5
20260905062620 26 155 1.6 11.3 0.00 0.00 0.00 82 1015.5
20260905062343 26 157 1.6 11.3 0.00 0.00 0.00 81 1015.5
20260905061607 26 165 3.2 9.7 0.00 0.00 0.00 81 1015.5
20260905061332 26 202 3.2 12.9 0.00 0.00 0.00 81 1015.5
20260905060556 27 126 3.2 14.5 0.00 0.00 0.00 80 1015.5
20260905060049 27 161 3.2 14.5 0.00 0.00 0.00 80 1015.5
20260905055543 27 153 3.2 12.9 0.00 0.00 0.00 79 1015.5
20260905055037 27 200 4.8 14.5 0.00 0.00 0.00 79 1015.5
20260905054531 27 170 4.8 14.5 0.00 0.00 0.00 78 1015.4
20260905054025 27 128 3.2 11.3 0.00 0.00 0.00 78 1015.5
20260905053519 27 155 3.2 11.3 0.00 0.00 0.00 77 1015.5
20260905053244 27 122 1.6 8.0 0.00 0.00 0.00 76 1015.5
20260905052738 27 165 3.2 8.0 0.00 0.00 0.00 76 1015.5
20260905052001 27 165 3.2 8.0 0.00 0.00 0.00 75 1015.6
20260905051727 27 166 3.2 9.7 0.00 0.00 0.00 74 1015.6
20260905051219 27 167 3.2 9.7 0.00 0.00 0.00 74 1015.5
20260905050443 27 169 3.2 16.1 0.00 0.00 0.00 73 1015.6
20260905045937 28 169 3.2 16.1 0.00 0.00 0.00 73 1015.5
20260905045432 28 150 3.2 11.3 0.00 0.00 0.00 72 1015.5
20260905045156 28 148 3.2 9.7 0.00 0.00 0.00 71 1015.5
20260905044420 28 184 4.8 17.7 0.00 0.00 0.00 70 1015.5
20260905043914 28 128 4.8 17.7 0.00 0.00 0.00 70 1015.6
20260905043407 28 151 3.2 12.9 0.00 0.00 0.00 69 1015.5
20260905043134 28 130 3.2 9.7 0.00 0.00 0.00 69 1015.5
20260905042356 28 148 3.2 11.3 0.00 0.00 0.00 69 1015.5
20260905041850 28 155 3.2 11.3 0.00 0.00 0.00 69 1015.5
20260905041616 28 128 3.2 9.7 0.00 0.00 0.00 69 1015.5
20260905040839 28 119 3.2 9.7 0.00 0.00 0.00 69 1015.3
20260905040332 28 113 1.6 6.4 0.00 0.00 0.00 69 1015.4
20260905035826 28 113 1.6 6.4 0.00 0.00 0.00 69 1015.5
20260905035320 28 113 1.6 6.4 0.00 0.00 0.00 69 1015.5
20260905034814 28 112 1.6 4.8 0.00 0.00 0.00 68 1015.4
20260905034308 28 112 3.2 9.7 0.00 0.00 0.00 68 1015.5
20260905033802 28 112 3.2 9.7 0.00 0.00 0.00 68 1015.4
20260905033256 28 110 3.2 9.7 0.00 0.00 0.00 68 1015.4
20260905032750 28 107 4.8 19.3 0.00 0.00 0.00 68 1015.3
20260905032244 28 131 3.2 19.3 0.00 0.00 0.00 68 1015.2
20260905031738 28 137 3.2 12.9 0.00 0.00 0.00 68 1015.2
20260905031503 28 120 3.2 12.9 0.00 0.00 0.00 69 1015.2
20260905030726 28 109 1.6 4.8 0.00 0.00 0.00 69 1015.0
20260905030220 28 110 1.6 6.4 0.00 0.00 0.00 69 1015.0
20260905025944 28 110 1.6 9.7 0.00 0.00 0.00 69 1015.0
20260905025208 28 108 3.2 11.3 0.00 0.00 0.00 69 1014.9
20260905024702 28 109 3.2 11.3 0.00 0.00 0.00 69 1014.8
20260905023650 28 118 3.2 11.3 0.00 0.00 0.00 69 1014.6
20260905023144 28 119 1.6 9.7 0.00 0.00 0.00 69 1014.5
20260905022644 28 91 1.6 9.7 0.00 0.00 0.00 69 1014.3
20260905022144 28 88 1.6 4.8 0.00 0.00 0.00 69 1014.4
20260905021644 28 88 1.6 4.8 0.00 0.00 0.00 69 1014.3
20260905021414 28 87 1.6 4.8 0.00 0.00 0.00 70 1014.2
20260905020642 28 87 0.0 3.2 0.00 0.00 0.00 70 1014.1
20260905020142 28 88 0.0 4.8 0.00 0.00 0.00 69 1014.0
20260905015645 28 88 1.6 4.8 0.00 0.00 0.00 69 1014.0
20260905015142 28 88 1.6 4.8 0.00 0.00 0.00 69 1014.0
20260905014640 28 88 0.0 4.8 0.00 0.00 0.00 68 1014.1
20260905014140 28 88 0.0 3.2 0.00 0.00 0.00 68 1014.0
20260905013640 28 88 0.0 3.2 0.00 0.00 0.00 68 1013.9
20260905013138 28 88 0.0 3.2 0.00 0.00 0.00 67 1013.8
20260905012638 28 88 1.6 4.8 0.00 0.00 0.00 67 1013.7
20260905012138 28 88 1.6 4.8 0.00 0.00 0.00 66 1013.8
20260905011908 29 88 0.0 0.0 0.00 0.00 0.00 66 1013.7
20260905011138 29 88 0.0 0.0 0.00 0.00 0.00 66 1013.7
20260905010636 29 88 0.0 1.6 0.00 0.00 0.00 66 1013.7
20260905010138 29 88 1.6 4.8 0.00 0.00 0.00 65 1013.7
20260905005906 29 88 1.6 4.8 0.00 0.00 0.00 65 1013.7
20260905005134 29 88 1.6 4.8 0.00 0.00 0.00 65 1013.7
20260905004906 29 88 0.0 4.8 0.00 0.00 0.00 65 1013.7
20260905004132 29 88 0.0 3.2 0.00 0.00 0.00 65 1013.6
20260905003632 30 88 1.6 3.2 0.00 0.00 0.00 65 1013.7
20260905003132 30 88 1.6 3.2 0.00 0.00 0.00 65 1013.7
20260905002632 30 88 1.6 4.8 0.00 0.00 0.00 65 1013.6
20260905002132 30 88 1.6 8.0 0.00 0.00 0.00 65 1013.6
20260905001132 30 87 1.6 8.0 0.00 0.00 0.00 64 1013.6
20260905000632 30 80 1.6 8.0 0.00 0.00 0.00 64 1013.5
20260905000132 30 74 1.6 6.4 0.00 0.00 0.00 64 1013.5
20260904235632 30 122 3.2 11.3 0.00 0.00 0.00 64 1013.3
20260904235132 30 121 3.2 11.3 0.00 0.00 0.00 64 1013.3
20260904234631 30 107 1.6 4.8 0.00 0.00 0.00 64 1013.2
20260904234132 30 94 1.6 4.8 0.00 0.00 0.00 64 1013.2
20260904233902 30 94 1.6 4.8 0.00 0.00 0.00 63 1013.2
20260904233130 30 94 1.6 4.8 0.00 0.00 0.00 63 1013.2
20260904232623 30 94 1.6 6.4 0.00 0.00 0.00 63 1013.3
20260904232117 30 93 3.2 6.4 0.00 0.00 0.00 64 1013.2
20260904231841 30 93 1.6 6.4 0.00 0.00 0.00 63 1013.2
20260904231105 30 102 1.6 6.4 0.00 0.00 0.00 63 1013.2
20260904230559 30 101 1.6 4.8 0.00 0.00 0.00 64 1013.2
20260904230053 30 101 3.2 8.0 0.00 0.00 0.00 63 1013.2
20260904225547 30 102 3.2 8.0 0.00 0.00 0.00 63 1013.3
20260904225041 30 112 1.6 8.0 0.00 0.00 0.00 63 1013.4
20260904224535 30 138 1.6 8.0 0.00 0.00 0.00 65 1013.4
20260904224027 30 85 1.6 6.4 0.00 0.00 0.00 67 1013.5
20260904223521 30 86 3.2 11.3 0.00 0.00 0.00 67 1013.5
20260904223246 30 76 3.2 11.3 0.00 0.00 0.00 68 1013.7
20260904222739 30 88 3.2 8.0 0.00 0.00 0.00 68 1013.7
20260904222002 30 85 3.2 6.4 0.00 0.00 0.00 70 1013.7
20260904221457 30 108 3.2 9.7 0.00 0.00 0.00 70 1013.8
20260904220951 30 103 4.8 12.9 0.00 0.00 0.00 70 1013.8
20260904220444 30 90 3.2 12.9 0.00 0.00 0.00 70 1013.9
20260904215939 30 94 3.2 12.9 0.00 0.00 0.00 70 1013.9
20260904215433 30 127 3.2 11.3 0.00 0.00 0.00 71 1013.9
20260904214925 30 115 3.2 11.3 0.00 0.00 0.00 71 1014.0
20260904214419 30 128 3.2 9.7 0.00 0.00 0.00 71 1014.1
20260904214145 30 86 3.2 6.4 0.00 0.00 0.00 72 1014.2
20260904213407 30 98 3.2 8.0 0.00 0.00 0.00 72 1014.2
20260904212901 30 67 3.2 9.7 0.00 0.00 0.00 73 1014.2
20260904212400 30 89 3.2 11.3 0.00 0.00 0.00 73 1014.3
20260904211849 30 117 3.2 11.3 0.00 0.00 0.00 73 1014.4
20260904210837 30 113 1.6 9.7 0.00 0.00 0.00 71 1014.4
20260904210330 30 115 1.6 9.7 0.00 0.00 0.00 71 1014.5
20260904205825 30 113 1.6 9.7 0.00 0.00 0.00 71 1014.6
20260904205319 30 113 1.6 9.7 0.00 0.00 0.00 71 1014.5